Location: Artiguedieu
(43.5000°N, 0.5454°E)
Time: 12:51:54
(UTC+00:00)

Vanguard 1 - Pass Details

Date: 03 August 2021
Orbit: 652 x 3831 km, 34.3° (Epoch: 23 September)

Event Time Altitude Azimuth Distance (km) Brightness Sun altitude
Rises 13:49:55 0° 264° (W) 3,540 13.3 55.6°
Reaches altitude 10° 13:52:15 10° 254° (WSW) 2,836 13.1 55.3°
Maximum altitude 13:58:25 34° 191° (S) 2,180 12.9 54.4°
Drops below altitude 10° 14:08:39 10° 132° (SE) 4,745 13.6 52.9°
Sets 14:13:56 0° 126° (SE) 6,313 14.1 52.1°
